Retour au catalogue

ARIANE 1 DEB

ActifLEO
NORAD 25837·DEBRIS·🇫🇷 France

Lancé Dec 24, 1979 depuis Guiana Space Centre

Loading…

Prochains Passages (prochaines 24 heures)

TLE

FraisSource: Space-Track

Époque: Sep 13, 2026, 09:09 UTC

1 25837U 79104L   26256.38169079  .00188829 -78278-5  29107-2 0  9995
2 25837  17.9260 143.9797 1140164  68.6804  75.7755 13.36725533114056

Suivez ARIANE 1 DEB en temps réel avec AllMySat

Download on the App Store